This demonstration page uses our WeatherBlox Daily Observations layout. Learn more.

Left ArrowRight Arrow

44.31136, -96.79839

Hourly Observations for August 27, 2022

Temp ( °F °C ) Dew Point ( °F °C ) Humidity (%) Winds ( mph kmh ) Pressure ( in mb ) Visibility ( mi km ) Precip ( " mm )
12:56 am 00:56 Clear 67 19.4 67 19.4 100 100 SSE 13 20 29.87 1012 10 16 0.00 0.00
1:56 am 01:56 Cloudy 67 19.4 67 19.4 100 100 WSW 3 6 29.87 1012 10 16 0.00 0.00
2:28 am 02:28 Partly Cloudy 66 19 66 19 100 100 Calm 29.80 1009 9 14 0.00 0.00
2:56 am 02:56 Mostly Clear 67 19.4 67 19.4 100 100 ESE 7 11 29.83 1010 10 16 0.00 0.00
3:56 am 03:56 Mostly Cloudy 66 18.9 66 18.9 100 100 Calm 29.85 1011 9 14 0.00 0.00
4:15 am 04:15 Cloudy 66 19 66 19 100 100 NNW 5 7 29.80 1009 8 13 0.00 0.00
4:35 am 04:35 Partly Cloudy 64 18 64 18 100 100 ESE 5 7 29.78 1009 8 13 0.00 0.00
4:56 am 04:56 Partly Cloudy 66 18.9 66 18.9 100 100 ESE 6 9 29.81 1010 9 14 0.00 0.00
5:56 am 05:56 Clear 66 18.9 66 18.9 100 100 SSE 10 17 29.78 1008 7 11 0.00 0.00
6:56 am 06:56 Sunny 67 19.4 67 19.4 100 100 S 8 13 29.78 1008 7 11 0.00 0.00
7:56 am 07:56 Sunny 69 20.6 69 20.6 100 100 S 9 15 29.78 1008 10 16 0.00 0.00
8:56 am 08:56 Sunny 72 22.2 67 19.4 84 84 S 7 11 29.78 1008 10 16 0.00 0.00
9:56 am 09:56 Sunny 76 24.4 66 18.9 71 71 S 10 17 29.78 1008 10 16 0.00 0.00
10:56 am 10:56 Partly Cloudy 80 26.7 64 17.8 58 58 SSW 13 20 29.77 1008 10 16 0.00 0.00
11:17 am 11:17 Partly Cloudy with Nearby Thunderstorms 82 28 63 17 51 51 SSW 13 20 29.67 1005 9 14 0.00 0.00
11:32 am 11:32 Mostly Sunny 81 27 63 17 54 54 SW 12 19 29.68 1005 10 16 0.00 0.00
11:56 am 11:56 Mostly Cloudy with Light Rain 76 24.4 63 17.2 64 64 SW 10 17 29.79 1009 10 16 0.01 0.13
12:56 pm 12:56 Mostly Cloudy with Nearby Thunderstorms 76 24.4 64 17.8 67 67 SSW 10 17 29.78 1009 10 16 0.01 0.13
1:14 pm 13:14 Mostly Sunny 77 25 64 18 65 65 S 7 11 29.70 1006 10 16 0.00 0.00
1:56 pm 13:56 Sunny 81 27.2 66 18.9 61 61 S 13 20 29.76 1008 10 16 0.00 0.00
2:56 pm 14:56 Sunny 80 26.7 66 18.9 62 62 SSW 9 15 29.77 1008 10 16 0.00 0.00
3:56 pm 15:56 Sunny 84 28.9 64 17.8 51 51 SSW 18 30 29.76 1008 10 16 0.00 0.00
4:56 pm 16:56 Sunny 81 27.2 65 18.3 58 58 S 13 20 29.74 1007 10 16 0.00 0.00
5:56 pm 17:56 Sunny 85 29.4 63 17.2 48 48 SSW 15 24 29.72 1007 10 16 0.00 0.00
6:56 pm 18:56 Sunny 82 27.8 60 15.6 47 47 SSW 16 26 29.72 1006 10 16 0.00 0.00
7:56 pm 19:56 Sunny 76 24.4 59 15 56 56 S 14 22 29.72 1006 10 16 0.00 0.00
8:56 pm 20:56 Clear 70 21.1 63 17.2 78 78 SSE 10 17 29.72 1007 10 16 0.00 0.00
9:56 pm 21:56 Clear 68 20 64 17.8 87 87 SSE 15 24 29.72 1006 10 16 0.00 0.00
10:56 pm 22:56 Clear 66 18.9 64 17.8 93 93 SSE 14 22 29.70 1006 10 16 0.00 0.00
11:56 pm 23:56 Clear 65 18.3 65 18.3 100 100 S 10 17 29.70 1006 10 16 0.00 0.00

Powered by AerisWeather